sat.trackr.live / text

‹ back to catalog

STARLINK-3162

NORAD 49411 · 2021-104D

PAYLOAD ACTIVE UNKNOWN

§ Identity

Operator
Country
US
Launch date
2021-11-13
Launch site
AFETR
Launch vehicle
Mass (kg)
RCS (m²)

Purposes: comms

External: N2YO · Heavens-Above · Gunter

§ Orbital elements

Epoch: 2026-09-08T20:57:32.755392Z

Period
93.79 min
Inclination
53.1600°
Eccentricity
0.0001050
Mean motion
15.35412900 rev/d
Perigee alt
459.0 km
Apogee alt
460.4 km
Semi-major
6,837.8 km
B*
6.5841e-5
RAAN
106.4363°
Arg perigee
88.7257°
Mean anomaly
271.3867°
Rev number
26,656

§ Raw data

STARLINK-31621 49411U 21104D   26251.87329578  .00001918  00000+0  65841-4 0  99982 49411  53.1600 106.4363 0001050  88.7257 271.3867 15.35412900266561

JSON: /api/v1/satellites/49411 · /tle

For live sub-satellite position, see the globe view (requires WebGL).

§ Visibility from observer

Set your observer location to see the next 7 days of passes ≥ 10°. The values pass through the URL so the page stays shareable.

No JS? Fill the form by hand. The geolocation button needs JavaScript.